URSA MAIOR (42776 NORAD) Tracking and Keplerian Element Data

This shows tracking and keplerian element data for the satellite.

Feedback or suggestion? Click here.




ElementValue
Catalog42776
NameURSA MAIOR
Epoch Orbit5917
Epoch Day198.94301566
Epoch Year2018
RAAN257.7859
Inclination97.3987
Eccentricity0.0012928
Argument of Perigee322.8445
Mean Anonmoly37.1894
Mean Motion15.20882003
Decay Rate6.52E-06
L11 42776U 17036M 18198.94301566 .00000652 00000-0 32600-4 0 9992
L22 42776 97.3987 257.7859 0012928 322.8445 37.1894 15.20882003 59177

Live tracking and technical data element details for URSA MAIOR (NORAD 42776). URSA MAIOR can be tracked NOW for your location showing map with azimuth and elevation plus other details from your city location.

Track the satellite on the map from your city or location and see movement details for azimuth, elevation, latitude, longitude, range, height, and movement on the map or in text.







IsCatalogInMostPopularTable: catalog: 42776, numindb: 87
Update: records affected: 1



GetName: 42776 URSA MAIOR

Hit Count: updated at: Thu, 19 Jul 2018 21:29:40 GMT